Weather History for KPVU - November, 2012

Change the Weather History Date:

Friday, November 2, 2012

  Actual Average Record
Temperature  
Mean Temperature 48 °F -  
Max Temperature 60 °F 50 °F 66 °F (2005)
Min Temperature 37 °F 30 °F 14 °F (2002)
Degree Days  
Heating Degree Days 16    
Moisture  
Dew Point 32 °F    
Average Humidity 58    
Maximum Humidity 76    
Minimum Humidity 36    
Precipitation  
Precipitation 0.00 in - - ()
Sea Level Pressure  
Sea Level Pressure 30.12 in    
Wind  
Wind Speed 5 mph (SE)    
Max Wind Speed 13 mph    
Max Gust Speed -    
Visibility 12 miles    
Events      
Averages and records for this station are not official NWS values.
T = Trace of Precipitation, MM = Missing Value Source: NWS Daily Summary

Daily Weather History Graph

Daily Weather History Graph

Search for Another Location

Airport or City:

Trip Planner

Search our weather history database for the weather conditions in past years. The results will help you decide how hot, cold, wet, or windy it might be!

Date:

Astronomy

Nov. 02, 2012 Rise Set
Actual Time 7:58 AM MDT 6:22 PM MDT
Civil Twilight 7:29 AM MDT 6:50 PM MDT
Nautical Twilight 6:57 AM MDT 7:22 PM MDT
Astronomical Twilight 6:25 AM MDT 7:54 PM MDT
Moon 9:12 PM MDT (11/2) 11:21 AM MDT (11/2)
Length of Visible Light 11h 20m
Length of Day
10h 24m
Waning Gibbous, 87% of the Moon is Illuminated
Nov 2
Waning Gibbous
Nov 6
Last Quarter
Nov 13
New
Nov 20
First Quarter
Nov 28
Full

Hourly Weather History & Observations

Time (MDT) Temp. Windchill Dew Point Humidity Pressure Visibility Wind Dir Wind Speed Gust Speed Precip Events Conditions
12:15 AM 46.4 °F 41.9 °F 33.8 °F 62% 30.05 in 10.0 mi SE 9.2 mph - N/A   Clear
12:35 AM 46.4 °F 42.4 °F 33.8 °F 62% 30.05 in 10.0 mi SE 8.1 mph - N/A   Clear
1:55 AM 46.4 °F 44.3 °F 32.0 °F 57% 30.06 in 10.0 mi SE 4.6 mph - N/A   Partly Cloudy
2:35 AM 44.6 °F - 30.2 °F 57% 30.07 in 10.0 mi Calm Calm - N/A   Partly Cloudy
2:55 AM 44.6 °F 43.1 °F 30.2 °F 57% 30.07 in 10.0 mi SSE 3.5 mph - N/A   Clear
3:15 AM 44.6 °F - 32.0 °F 61% 30.08 in 10.0 mi Calm Calm - N/A   Clear
3:35 AM 42.8 °F - 30.2 °F 61% 30.08 in 10.0 mi Calm Calm - N/A   Clear
3:55 AM 44.6 °F - 30.2 °F 57% 30.08 in 10.0 mi Calm Calm - N/A   Clear
4:15 AM 42.8 °F - 32.0 °F 66% 30.08 in 10.0 mi Calm Calm - N/A   Clear
4:55 AM 41.0 °F 39.0 °F 30.2 °F 65% 30.09 in 10.0 mi East 3.5 mph - N/A   Clear
5:15 AM 39.2 °F 35.0 °F 30.2 °F 70% 30.09 in 10.0 mi East 5.8 mph - N/A   Clear
5:35 AM 41.0 °F 37.1 °F 28.4 °F 61% 30.09 in 10.0 mi ESE 5.8 mph - N/A   Clear
5:55 AM 42.8 °F 40.1 °F 26.6 °F 53% 30.10 in 10.0 mi SE 4.6 mph - N/A   Mostly Cloudy
6:35 AM 42.8 °F 38.0 °F 28.4 °F 57% 30.11 in 10.0 mi SE 8.1 mph - N/A   Partly Cloudy
6:58 AM 39.2 °F - 28.4 °F 65% 30.11 in 10.0 mi Calm Calm - N/A   Mostly Cloudy
7:55 AM 39.2 °F 35.9 °F 26.6 °F 61% 30.12 in 15.0 mi SE 4.6 mph - N/A   Mostly Cloudy
8:54 AM 37.4 °F 34.9 °F 28.4 °F 70% 30.15 in 15.0 mi East 3.5 mph - N/A   Scattered Clouds
9:48 AM 48.2 °F - 30.2 °F 50% 30.16 in 15.0 mi SE 5.8 mph - N/A   Scattered Clouds
10:49 AM 51.8 °F - 30.2 °F 44% 30.16 in 15.0 mi SE 3.5 mph - N/A   Partly Cloudy
11:53 AM 53.6 °F - 33.8 °F 47% 30.16 in 15.0 mi Calm Calm - N/A   Partly Cloudy
12:51 PM 55.4 °F - 33.8 °F 44% 30.15 in 15.0 mi Variable 4.6 mph - N/A   Partly Cloudy
1:47 PM 57.2 °F - 33.8 °F 41% 30.13 in 15.0 mi West 6.9 mph - N/A   Partly Cloudy
2:50 PM 57.2 °F - 32.0 °F 38% 30.12 in 15.0 mi West 4.6 mph - N/A   Partly Cloudy
3:47 PM 60.8 °F - 33.8 °F 36% 30.10 in 15.0 mi West 5.8 mph - N/A   Partly Cloudy
4:49 PM 60.8 °F - 33.8 °F 36% 30.10 in 15.0 mi WNW 6.9 mph - N/A   Partly Cloudy
5:50 PM 57.2 °F - 35.6 °F 44% 30.10 in 15.0 mi WNW 11.5 mph - N/A   Partly Cloudy
6:51 PM 53.6 °F - 35.6 °F 51% 30.11 in 15.0 mi WNW 12.7 mph - N/A   Partly Cloudy
7:55 PM 51.8 °F - 37.4 °F 58% 30.13 in 15.0 mi Calm Calm - N/A   Partly Cloudy
8:50 PM 48.2 °F - 35.6 °F 62% 30.14 in 15.0 mi Calm Calm - N/A   Partly Cloudy
9:35 PM 48.2 °F - 35.6 °F 62% 30.15 in 10.0 mi Calm Calm - N/A   Clear
9:55 PM 44.6 °F 43.1 °F 35.6 °F 71% 30.15 in 10.0 mi East 3.5 mph - N/A   Clear
10:35 PM 44.6 °F 40.7 °F 35.6 °F 71% 30.16 in 10.0 mi SE 6.9 mph - N/A   Clear
10:55 PM 42.8 °F 41.1 °F 35.6 °F 76% 30.16 in 10.0 mi SE 3.5 mph - N/A   Clear
11:15 PM 42.8 °F - 33.8 °F 70% 30.16 in 10.0 mi Calm Calm - N/A   Clear
11:35 PM 42.8 °F 41.1 °F 33.8 °F 70% 30.16 in 10.0 mi ESE 3.5 mph - N/A   Clear
11:55 PM 41.0 °F 39.0 °F 33.8 °F 76% 30.17 in 10.0 mi ESE 3.5 mph - N/A   Clear